Weather History for Vacaville, CA

Change the Weather History Date:

Tuesday, October 9, 2012

  Actual Average Record
Temperature  
Mean Temperature 62 °F -  
Max Temperature 75 °F 82 °F 98 °F (1958)
Min Temperature 48 °F 50 °F 39 °F (1968)
Degree Days  
Heating Degree Days 4    
Growing Degree Days 12 (Base 50)    
Moisture  
Dew Point 46 °F    
Average Humidity 60    
Maximum Humidity 86    
Minimum Humidity 33    
Precipitation  
Precipitation 0.00 in - - ()
Sea Level Pressure  
Sea Level Pressure 29.98 in    
Wind  
Wind Speed 2 mph (West)    
Max Wind Speed 7 mph    
Max Gust Speed -    
Visibility 10 miles    
Events      
Averages and records for this station are not official NWS values.
T = Trace of Precipitation, MM = Missing Value Source: NWS Daily Summary

Daily Weather History Graph

Daily Weather History Graph

Search for Another Location

Airport:

Trip Planner

Search our weather history database for the weather conditions in past years. The results will help you decide how hot, cold, wet, or windy it might be!

Date:

Astronomy

Oct. 09, 2012 Rise Set
Actual Time 7:11 AM PDT 6:37 PM PDT
Civil Twilight 6:45 AM PDT 7:04 PM PDT
Nautical Twilight 6:14 AM PDT 7:34 PM PDT
Astronomical Twilight 5:43 AM PDT 8:05 PM PDT
Moon 12:58 AM PDT (10/9) 3:04 PM PDT (10/9)
Length of Visible Light 12h 19m
Length of Day
11h 26m
Waning Crescent, 35% of the Moon is Illuminated
Oct 9
Waning Crescent
Oct 15
New
Oct 21
First Quarter
Oct 29
Full
Nov 6
Last Quarter

Hourly Weather History & Observations

Time (PDT) Temp. Dew Point Humidity Pressure Visibility Wind Dir Wind Speed Gust Speed Precip Events Conditions
1:53 AM 50.0 °F 43.0 °F 77% 30.01 in 10.0 mi Calm Calm - N/A   Clear
2:53 AM 54.0 °F 46.9 °F 77% 30.01 in 10.0 mi Variable 4.6 mph - N/A   Clear
3:53 AM 54.0 °F 48.0 °F 80% 30.00 in 10.0 mi SW 6.9 mph - N/A   Clear
4:53 AM 52.0 °F 46.9 °F 83% 29.99 in 10.0 mi SW 4.6 mph - N/A   Clear
5:53 AM 48.0 °F 44.1 °F 86% 30.00 in 10.0 mi Calm Calm - N/A   Clear
6:53 AM 48.0 °F 44.1 °F 86% 30.01 in 10.0 mi Calm Calm - N/A   Clear
7:53 AM 51.1 °F 46.0 °F 83% 30.01 in 10.0 mi Calm Calm - N/A   Clear
8:53 AM 57.0 °F 48.0 °F 72% 30.03 in 10.0 mi Calm Calm - N/A   Clear
9:53 AM 62.1 °F 48.0 °F 60% 30.04 in 10.0 mi NNW 4.6 mph - N/A   Clear
10:53 AM 66.0 °F 48.0 °F 52% 30.03 in 10.0 mi Variable 4.6 mph - N/A   Clear
11:53 AM 70.0 °F 48.9 °F 47% 30.01 in 10.0 mi Variable 4.6 mph - N/A   Clear
12:53 PM 72.0 °F 48.9 °F 44% 30.00 in 10.0 mi Calm Calm - N/A   Clear
1:53 PM 72.0 °F 48.0 °F 43% 29.97 in 10.0 mi NNW 3.5 mph - N/A   Clear
2:53 PM 73.9 °F 46.9 °F 38% 29.96 in 10.0 mi Variable 3.5 mph - N/A   Clear
3:53 PM 75.0 °F 44.1 °F 33% 29.94 in 10.0 mi Variable 3.5 mph - N/A   Clear
4:53 PM 75.0 °F 44.1 °F 33% 29.92 in 10.0 mi West 4.6 mph - N/A   Clear
5:53 PM 73.0 °F 44.1 °F 35% 29.92 in 10.0 mi Calm Calm - N/A   Clear
6:53 PM 68.0 °F 51.1 °F 55% 29.92 in 10.0 mi SW 6.9 mph - N/A   Clear
7:53 PM 64.9 °F 48.0 °F 54% 29.94 in 10.0 mi Calm Calm - N/A   Clear
8:53 PM 64.0 °F 46.0 °F 52% 29.94 in 10.0 mi SW 4.6 mph - N/A   Clear
9:53 PM 57.9 °F 45.0 °F 62% 29.94 in 10.0 mi Calm Calm - N/A   Clear
10:53 PM 55.9 °F 45.0 °F 67% 29.94 in 10.0 mi ENE 3.5 mph - N/A   Clear
11:53 PM 54.0 °F 45.0 °F 72% 29.94 in 10.0 mi Calm Calm - N/A   Clear